C/2023 C2 ( ATLAS )

Japanese version
Home page
Updated on December 23, 2024

---------------------------------------------------------------------

* Profile

Discovery Date February 1, 2023
Magnitude 19.1 mag
Discoverer Asteroid Terrestrial-Impact Last Alert System (ATLAS) search program

* Pictures

* Orbital Elements

Epoch 2024 Oct. 17.0 TT = JDT 2460600.5
T 2024 Nov. 16.81360 TT                                 Rudenko
q   2.3685075            (2000.0)            P               Q
z  +0.0003376      Peri.  357.45737     +0.48931098     +0.59226025
 +/-0.0000010      Node   301.00438     -0.78638751     -0.01772256
e   0.9992004      Incl.   48.31947     -0.37705364     +0.80555180
From 614 observations 2023 Feb. 1-2024 Nov. 13, mean residual 0".5.

* Finding Charts

* Magnitudes Graph

        m1 = 7.5 + 5 log d + 9.5 log r(t + 30)

---------------------------------------------------------------------

The orbital elements are published on M.P.E.C. 2024-V192.
The charts are made with StellaNavigator Ver.11 (AstroArts).
The magnitudes graphs are made with Comet for Windows.

---------------------------------------------------------------------

Copyright(C) Seiichi Yoshida (comet@aerith.net). All rights reserved.